TOURFACTS.DK  
Stats and Facts from Tour de France.

Tour de France 2018 starts in 261 days
  Riders   Stages   Teams   Summits   Yearly  


 
Search by year

 2017 - St. 21:  14824 starters.
  5131 different riders.
  634 teams.
  2232 stages.
  454 restdays.
  439589.60 km.
  5653 abandonnees.


Top 3
Christopher Froome86:20:55
Rigoberto Uran86:21:49
Romain Bardet86:23:15
Warren Barguil169 pt.
Primoz Roglic80 pt.
Thomas De Gendt64 pt.
Michael Matthews359 pt.
André Greipel234 pt.
Edvald Boasson Hagen220 pt.
Simon Yates86:27:09
Louis Meintjes86:29:15
Emanuel Buchmann86:54:16
Facts from Tour de France 2013
  |   Stages.  |   Stage winners.  |   Days in yellow  |   Average speed.  |   Route.  |   Teams.  |   All riders.  |   Rookies.  |   Withdrawls.  |  

  |   GC.  |   Polka  |   Green  |   White  |   Summits. (In tour)  |   Summits. (Points)  |   Miscellaneous.  |  

Stage 9 on 07 - 07 - 2013
         Owning:    Christopher Froome    
Pick a stage:  1 2 3 4 5 6 7 8 9 10 11 12 13 14 15 16 17 18 19 20 21
  Saint-GironsBagnères-de-Bigorre | Dist: 165.00 km.
Cat: 2Col de Portet-d'AspetFRAArnold Jeannesson
5 points
 
Cat: 1Col de Menté/MourtisUSATom Danielson
10 points
 
Cat: 1Col de PeyresourdeBELThomas De Gendt
10 points
 
Cat: 1Col de Val Louron-AzetAUSSimon Clarke
10 points
 
Cat: 1La Hourquette d'AncizanENGDaniel Martin
10 points
 

Average speed for all riders in stage:  32,866 km./hr.
    Place:Name:Team:Time:Km/h:
ENGDaniel MartinUSAGarmin Sharp04:43:03  +  00:00:00=34,976 
SUIJakob FuglsangKAZAstana Pro Team04:43:03  +  00:00:00=34,976 
POLMichal KwiatkowskiBELOmega Pharma – Quick Step04:43:23  +  00:00:20=34,935 
4 ESPDaniel MorenoRUSTeam Katusha04:43:23  +  00:00:20=34,935 
5 ESPJoaquim RodriguezRUSTeam Katusha04:43:23  +  00:00:20=34,935 
6 AUSCadel EvansUSABMC Racing Team04:43:23  +  00:00:20=34,935 
7 NEDWout PoelsNLDVacansoleil - DCM04:43:23  +  00:00:20=34,935 
8 NEDBauke MollemaNLDBelkin Pro Cycling04:43:23  +  00:00:20=34,935 
9 ESPDaniel NavarroFRACofidis – Solutions Crédits04:43:23  +  00:00:20=34,935 
10 BELMaxime MonfortLUXRadioShack Leopard04:43:23  +  00:00:20=34,935 
11 ESPAlejandro ValverdeESPMovistar Team04:43:23  +  00:00:20=34,935 
12 LUXAndy SchleckLUXRadioShack Leopard04:43:23  +  00:00:20=34,935 
13 ESPAlberto ContadorDNKTeam Saxo-Tinkoff04:43:23  +  00:00:20=34,935 
14 KENChristopher FroomeGBRSky Procycling04:43:23  +  00:00:20=34,935 
15 CZERoman KreuzigerDNKTeam Saxo-Tinkoff04:43:23  +  00:00:20=34,935 
16 ESPMikel NieveESPEuskaltel - Euskadi04:43:23  +  00:00:20=34,935 
17 NEDLaurens ten DamNLDBelkin Pro Cycling04:43:23  +  00:00:20=34,935 
18 FRAJean-Christophe PeraudFRAAg2r La Mondiale04:43:23  +  00:00:20=34,935 
19 COLNairo QuintanaESPMovistar Team04:43:23  +  00:00:20=34,935 
20 PORRui CostaESPMovistar Team04:43:23  +  00:00:20=34,935 
21 FRAHubert DupontFRAAg2r La Mondiale04:43:23  +  00:00:20=34,935 
22 NEDRobert GesinkNLDBelkin Pro Cycling04:43:28  +  00:00:25=34,925 
23 SUISteve MorabitoUSABMC Racing Team04:43:28  +  00:00:25=34,925 
24 FRARomain BardetFRAAg2r La Mondiale04:46:57  +  00:03:54=34,501 
25 ESPJon Izaguirre InsaustiESPEuskaltel - Euskadi04:46:57  +  00:03:54=34,501 
26 ESPIgor AntonESPEuskaltel - Euskadi04:46:57  +  00:03:54=34,501 
27 FRACyril GautierFRATeam Europcar04:46:57  +  00:03:54=34,501 
28 AUSMichael RogersDNKTeam Saxo-Tinkoff04:46:57  +  00:03:54=34,501 
29 COLJosé SerpaITALampre-Merida04:46:57  +  00:03:54=34,501 
30 FRASylvain ChavanelBELOmega Pharma – Quick Step04:50:10  +  00:07:07=34,118 
31 ITADavide MalacarneFRATeam Europcar04:50:10  +  00:07:07=34,118 
32 ITADamiano CunegoITALampre-Merida04:50:10  +  00:07:07=34,118 
33 USAAndrew TalanskyUSAGarmin Sharp04:50:10  +  00:07:07=34,118 
34 BELBart De ClercqBELLotto-Belisol Team04:50:10  +  00:07:07=34,118 
35 ESPRubén PlazaESPMovistar Team04:50:10  +  00:07:07=34,118 
36 AUSSimon ClarkeAUSOrica - GreenEDGE04:50:10  +  00:07:07=34,118 
37 GERMarcus BurghardtUSABMC Racing Team04:51:00  +  00:07:57=34,021 
38 FRAPierre RollandFRATeam Europcar04:51:00  +  00:07:57=34,021 
39 GERJens VoigtLUXRadioShack Leopard04:51:00  +  00:07:57=34,021 
40 KAZAlexey LutsenkoKAZAstana Pro Team04:51:00  +  00:07:57=34,021 
41 BELJan BakelantsLUXRadioShack Leopard04:51:00  +  00:07:57=34,021 
42 FRAArthur VichotFRAFDJ.fr04:54:41  +  00:11:38=33,595 
43 ESPMikel AstarlozaESPEuskaltel - Euskadi04:54:41  +  00:11:38=33,595 
44 ESPJuan José OrozESPEuskaltel - Euskadi04:54:41  +  00:11:38=33,595 
45 FRAChristophe Le MevelFRACofidis – Solutions Crédits04:54:41  +  00:11:38=33,595 
46 LUXLaurent DidierLUXRadioShack Leopard04:54:41  +  00:11:38=33,595 
47 FRAMaxime MederelFRASojasun04:54:41  +  00:11:38=33,595 
48 NORLars Petter NordhaugNLDBelkin Pro Cycling04:54:41  +  00:11:38=33,595 
49 POLPrzemyslaw NiemiecITALampre-Merida04:54:41  +  00:11:38=33,595 
50 SVKPeter VelitsBELOmega Pharma – Quick Step04:54:41  +  00:11:38=33,595 
51 NEDTom DumoulinNLDArgos–Shimano04:54:41  +  00:11:38=33,595 
52 ITAEnrico GasparottoKAZAstana Pro Team04:54:41  +  00:11:38=33,595 
53 ESPImanol ErvitiESPMovistar Team04:54:41  +  00:11:38=33,595 
54 ESPJonathan CastroviejoESPMovistar Team04:54:41  +  00:11:38=33,595 
55 ESPJesus  HernandezDNKTeam Saxo-Tinkoff04:54:41  +  00:11:38=33,595 
56 FRAJohn GadretFRAAg2r La Mondiale04:54:41  +  00:11:38=33,595 
57 RUSEduard VorganovRUSTeam Katusha04:54:41  +  00:11:38=33,595 
58 BELSep VanmarckeNLDBelkin Pro Cycling05:01:02  +  00:17:59=32,887 
59 CANRyder HesjedalUSAGarmin Sharp05:01:02  +  00:17:59=32,887 
60 AUSRichie PorteGBRSky Procycling05:01:02  +  00:17:59=32,887 
61 RUSYury TrofimovRUSTeam Katusha05:01:02  +  00:17:59=32,887 
62 NEDBram TankinkNLDBelkin Pro Cycling05:02:02  +  00:18:59=32,778 
63 FRAAlexis VuillermozFRASojasun05:02:02  +  00:18:59=32,778 
64 UZBSergey LagutinNLDVacansoleil - DCM05:02:02  +  00:18:59=32,778 
65 GERJohannes FröhlingerNLDArgos–Shimano05:02:02  +  00:18:59=32,778 
66 BELThomas De GendtNLDVacansoleil - DCM05:02:02  +  00:18:59=32,778 
67 AUSSimon GerransAUSOrica - GreenEDGE05:02:02  +  00:18:59=32,778 
68 RUSPavel BruttRUSTeam Katusha05:03:29  +  00:20:26=32,621 
69 BRAMurilo Antonio FischerFRAFDJ.fr05:03:29  +  00:20:26=32,621 
70 FRAKévin RezaFRATeam Europcar05:03:29  +  00:20:26=32,621 
71 CANDavid VeilleuxFRATeam Europcar05:03:29  +  00:20:26=32,621 
72 FRATony GallopinLUXRadioShack Leopard05:03:29  +  00:20:26=32,621 
73 ITAManuel QuinziatoUSABMC Racing Team05:03:29  +  00:20:26=32,621 
74 ITAMatteo TosattoDNKTeam Saxo-Tinkoff05:03:29  +  00:20:26=32,621 
75 DENLars BakBELLotto-Belisol Team05:03:29  +  00:20:26=32,621 
76 FRAPierrick FédrigoFRAFDJ.fr05:03:29  +  00:20:26=32,621 
77 PORSergio PaulinhoDNKTeam Saxo-Tinkoff05:03:29  +  00:20:26=32,621 
78 BLRAliaksandr KuchynskiRUSTeam Katusha05:03:29  +  00:20:26=32,621 
79 ESPAlberto LosadaRUSTeam Katusha05:03:29  +  00:20:26=32,621 
80 CRCAndrey AmadorESPMovistar Team05:03:29  +  00:20:26=32,621 
81 ESPJosé Joaquin RojasESPMovistar Team05:05:46  +  00:22:43=32,378 
82 USABrent BookwalterUSABMC Racing Team05:05:46  +  00:22:43=32,378 
83 ESPLuis Angel MateFRACofidis – Solutions Crédits05:05:46  +  00:22:43=32,378 
84 ITAManuele MoriITALampre-Merida05:05:46  +  00:22:43=32,378 
85 ITAFabio SabatiniITACannondale Pro Cycling05:05:46  +  00:22:43=32,378 
86 USATejay Van GarderenUSABMC Racing Team05:05:46  +  00:22:43=32,378 
87 ESPHaimar ZubeldiaLUXRadioShack Leopard05:05:46  +  00:22:43=32,378 
88 BELPhilippe GilbertUSABMC Racing Team05:05:46  +  00:22:43=32,378 
89 URSGatis SmukulisRUSTeam Katusha05:05:46  +  00:22:43=32,378 
90 RSADaryl ImpeyAUSOrica - GreenEDGE05:05:46  +  00:22:43=32,378 
91 SUIMichael AlbasiniAUSOrica - GreenEDGE05:05:46  +  00:22:43=32,378 
92 ITAFrancesco GavazziKAZAstana Pro Team05:05:46  +  00:22:43=32,378 
93 BELMaarten WynantsNLDBelkin Pro Cycling05:05:46  +  00:22:43=32,378 
94 ARGJuan Antonio FlechaNLDVacansoleil - DCM05:05:46  +  00:22:43=32,378 
95 FRASébastien MinardFRAAg2r La Mondiale05:05:46  +  00:22:43=32,378 
96 ITADaniele BennatiDNKTeam Saxo-Tinkoff05:05:46  +  00:22:43=32,378 
97 AUSAdam HansenBELLotto-Belisol Team05:05:46  +  00:22:43=32,378 
98 FRABrice FeilluFRASojasun05:05:46  +  00:22:43=32,378 
99 GERSimon GeschkeNLDArgos–Shimano05:05:46  +  00:22:43=32,378 
100 GERJohn DegenkolbNLDArgos–Shimano05:05:46  +  00:22:43=32,378 
101 IOMPeter KennaughGBRSky Procycling05:05:46  +  00:22:43=32,378 
102 WALGeraint ThomasGBRSky Procycling05:05:46  +  00:22:43=32,378 
103 ITAMatteo TrentinBELOmega Pharma – Quick Step05:05:46  +  00:22:43=32,378 
104 ITAAlessandro De MarchiITACannondale Pro Cycling05:05:46  +  00:22:43=32,378 
105 SVKPeter SaganITACannondale Pro Cycling05:05:46  +  00:22:43=32,378 
106 USATom DanielsonUSAGarmin Sharp05:05:46  +  00:22:43=32,378 
107 FRAArnold JeannessonFRAFDJ.fr05:05:46  +  00:22:43=32,378 
108 FRAJérémy RoyFRAFDJ.fr05:05:46  +  00:22:43=32,378 
109 JPNYukiya ArashiroFRATeam Europcar05:05:46  +  00:22:43=32,378 
110 NEDJohnny HoogerlandNLDVacansoleil - DCM05:08:15  +  00:25:12=32,117 
111 SLOKristjan KorenITACannondale Pro Cycling05:08:15  +  00:25:12=32,117 
112 FRAJulien SimonFRASojasun05:08:15  +  00:25:12=32,117 
113 BELFrederik WillemsBELLotto-Belisol Team05:08:15  +  00:25:12=32,117 
114 AUSStuart O'GradyAUSOrica - GreenEDGE05:08:15  +  00:25:12=32,117 
115 GERAndréas KlödenLUXRadioShack Leopard05:08:15  +  00:25:12=32,117 
116 FRAJulien El FarèsFRASojasun05:08:15  +  00:25:12=32,117 
117 NEDLars BoomNLDBelkin Pro Cycling05:08:15  +  00:25:12=32,117 
118 ITAAlan MarangoniITACannondale Pro Cycling05:08:15  +  00:25:12=32,117 
119 FRARomain SicardESPEuskaltel - Euskadi05:08:15  +  00:25:12=32,117 
120 ITAElia FavilliITALampre-Merida05:08:15  +  00:25:12=32,117 
121 CANSvein TuftAUSOrica - GreenEDGE05:08:15  +  00:25:12=32,117 
122 URSRein TaaramäeFRACofidis – Solutions Crédits05:08:15  +  00:25:12=32,117 
123 NEDRoy CurversNLDArgos–Shimano05:08:15  +  00:25:12=32,117 
124 ITAMoreno MoserITACannondale Pro Cycling05:08:15  +  00:25:12=32,117 
125 NEDAlbert TimmerNLDArgos–Shimano05:08:15  +  00:25:12=32,117 
126 FRAGuillaume LevarletFRACofidis – Solutions Crédits05:08:15  +  00:25:12=32,117 
127 GERMarcel KittelNLDArgos–Shimano05:08:15  +  00:25:12=32,117 
128 AUSMatthew GossAUSOrica - GreenEDGE05:08:15  +  00:25:12=32,117 
129 AUSBrett LancasterAUSOrica - GreenEDGE05:08:15  +  00:25:12=32,117 
130 FRAThibaut PinotFRAFDJ.fr05:08:15  +  00:25:12=32,117 
131 AUSCameron MeyerAUSOrica - GreenEDGE05:08:15  +  00:25:12=32,117 
132 FRABlel KadriFRAAg2r La Mondiale05:08:15  +  00:25:12=32,117 
133 FRAAlexandre GeniezFRAFDJ.fr05:08:15  +  00:25:12=32,117 
134 GERTony MartinBELOmega Pharma – Quick Step05:08:15  +  00:25:12=32,117 
135 FRAJonathan HivertFRASojasun05:08:15  +  00:25:12=32,117 
136 FRAYohann GèneFRATeam Europcar05:08:15  +  00:25:12=32,117 
137 NEDNiki TerpstraBELOmega Pharma – Quick Step05:09:23  +  00:26:20=31,999 
138 ITARoberto FerrariITALampre-Merida05:09:23  +  00:26:20=31,999 
139 ENGIan StannardGBRSky Procycling05:09:23  +  00:26:20=31,999 
140 POLMaciej BodnarITACannondale Pro Cycling05:09:23  +  00:26:20=31,999 
141 IOMMark CavendishBELOmega Pharma – Quick Step05:09:23  +  00:26:20=31,999 
142 NEDDanny van PoppelNLDVacansoleil - DCM05:09:23  +  00:26:20=31,999 
143 GERAndré GreipelBELLotto-Belisol Team05:09:23  +  00:26:20=31,999 
144 DENBrian VandborgITACannondale Pro Cycling05:09:23  +  00:26:20=31,999 
145 ESPEgoitz GarciaFRACofidis – Solutions Crédits05:09:23  +  00:26:20=31,999 
146 NEDKoen De KortNLDArgos–Shimano05:09:23  +  00:26:20=31,999 
147 NEDTom VeelersNLDArgos–Shimano05:09:23  +  00:26:20=31,999 
148 ESPMarkel IrizarLUXRadioShack Leopard05:09:23  +  00:26:20=31,999 
149 NEDBoy van PoppelNLDVacansoleil - DCM05:09:23  +  00:26:20=31,999 
150 BELGert SteegmansBELOmega Pharma – Quick Step05:09:23  +  00:26:20=31,999 
151 ITADavide CimolaiITALampre-Merida05:09:23  +  00:26:20=31,999 
152 NZLGregory HendersonBELLotto-Belisol Team05:09:23  +  00:26:20=31,999 
153 GERMarcel SiebergBELLotto-Belisol Team05:09:23  +  00:26:20=31,999 
154 FRAChristophe RiblonFRAAg2r La Mondiale05:09:23  +  00:26:20=31,999 
155 NZLJack BauerUSAGarmin Sharp05:09:23  +  00:26:20=31,999 
156 FRANicolas RocheDNKTeam Saxo-Tinkoff05:09:23  +  00:26:20=31,999 
157 FRACyril LemoineFRASojasun05:09:23  +  00:26:20=31,999 
158 NEDLieuwe WestraNLDVacansoleil - DCM05:09:23  +  00:26:20=31,999 
159 FRAWilliam BonnetFRAFDJ.fr05:09:23  +  00:26:20=31,999 
160 FRAJérôme CousinFRATeam Europcar05:09:23  +  00:26:20=31,999 
161 FRAJérôme CoppelFRACofidis – Solutions Crédits05:09:23  +  00:26:20=31,999 
162 NORAlexander KristoffRUSTeam Katusha05:09:23  +  00:26:20=31,999 
163 MLTDavid MillarUSAGarmin Sharp05:09:23  +  00:26:20=31,999 
164 FRAAnthony DelaplaceFRASojasun05:09:23  +  00:26:20=31,999 
165 NOREdvald Boasson HagenGBRSky Procycling05:09:23  +  00:26:20=31,999 
166 ESPDavid LopezGBRSky Procycling05:09:23  +  00:26:20=31,999 
167 BLRKanstantin SivtsovGBRSky Procycling05:09:23  +  00:26:20=31,999 
168 FRAAmaël MoinardUSABMC Racing Team05:09:23  +  00:26:20=31,999 
169 BELJürgen RoelandtsBELLotto-Belisol Team05:09:23  +  00:26:20=31,999 
170 NEDTom LeezerNLDBelkin Pro Cycling05:09:23  +  00:26:20=31,999 
171 BELKris BoeckmansNLDVacansoleil - DCM05:09:23  +  00:26:20=31,999 
172 FRAThomas VoecklerFRATeam Europcar05:09:23  +  00:26:20=31,999 
173 ESPJuan LobatoESPEuskaltel - Euskadi05:09:23  +  00:26:20=31,999 
174 ESPRuben PerezESPEuskaltel - Euskadi05:09:23  +  00:26:20=31,999 
175 FRAJérôme PineauBELOmega Pharma – Quick Step05:09:23  +  00:26:20=31,999 
176 FRAJean-Marc MarinoFRASojasun05:09:23  +  00:26:20=31,999 
177 FRARudy MolardFRACofidis – Solutions Crédits05:09:23  +  00:26:20=31,999 
178 URSRamunas NavardauskasUSAGarmin Sharp05:09:23  +  00:26:20=31,999 
179 KAZDmitriy MuravyevKAZAstana Pro Team05:09:23  +  00:26:20=31,999 
180 FRASamuel DumoulinFRAAg2r La Mondiale05:09:23  +  00:26:20=31,999 
181 ESPGorka Izaguirre InsaustiESPEuskaltel - Euskadi05:09:23  +  00:26:20=31,999 
182 KAZAssan BazayevKAZAstana Pro Team05:09:23  +  00:26:20=31,999 

Withdrawls: 5
 
Rider
Team
Reason
4  BLRVasil KiryienkaGBRSky ProcyclingExceeded time limit
38  SUIMichael SchärUSABMC Racing TeamDid not start
95  ESPBenjamin NovalDNKTeam Saxo-TinkoffDid not finish
126  ESPJosé Ivan GutierrezESPMovistar TeamDid not finish
174  AUSRohan DennisUSAGarmin SharpDid not start

Todays birthdays.

1876  Hippolyte Aucouturier
1885  Ernesto Azzini
1939  Horst Oldenburg
1952  Gilbert Le Lay